Flag for U.S.A. Weather past 2 weeks in Aspen, Colorado, U.S.A.

Now
78 °F

Sunny.


Feels Like: 78 °F
Forecast: 48 / 76 °F
Wind: 8 mph from North

Location: Aspen-Pitkin County Airport

Current Time: Sep 19, 2014 at 2:24:55 PM

Latest Report: Sep 19, 2014 at 1:53 PM


Visibility: 10 mi

Pressure: 29.80 "Hg

Humidity: 22%

Dew point: 36 °F

Location of AspenLocation

Historic Weather in Aspen — Graph

°F

Aspen temperature yesterday

Maximum temperature yesterday: 80 °F (at 2:53 PM)
Minimum temperature yesterday: 44 °F (at 4:53 AM)
Average temperature yesterday: 62 °F

Past Weeks' High & Low Weather Summary

 TemperatureHumidityPressure
High80 °F (Sep 18, 2:53 PM)97% (Sep 9, 4:53 AM)30.35 "Hg (Sep 9, 4:53 AM)
Low35 °F (Sep 12, 5:53 AM)16% (Sep 16, 3:53 PM)29.72 "Hg (Sep 18, 3:53 PM)
Average56 °F54%29.98 "Hg
* Reported Sep 4 12:53 PM — Sep 19 12:53 PM, Aspen, Weather by CustomWeather, © 2014

Note: Actual official high and low records may vary slightly from our data, if they occured in-between our weather recording intervals... More about our weather records

Advertising

Aspen weather history for previous 24 hours

 ConditionsComfort  
Time TempWeatherWind HumidityBarometerVisibility
12:53 PM
Sep 19
77 °FSunny.10 mph24%29.83 "Hg10 mi
11:53 AM75 °FSunny.5 mph26%29.85 "Hg10 mi
10:53 AM71 °FSunny.5 mph30%29.85 "Hg10 mi
9:53 AM64 °FSunny.No wind38%29.89 "Hg10 mi
8:53 AM59 °FSunny.5 mph46%29.90 "Hg10 mi
7:53 AM50 °FSunny.5 mph63%29.90 "Hg10 mi
6:53 AM47 °FClear.6 mph69%29.87 "Hg10 mi
5:53 AM48 °FClear.6 mph63%29.85 "Hg10 mi
4:53 AM45 °FPassing clouds.5 mph74%29.85 "Hg10 mi
3:53 AM48 °FClear.6 mph63%29.80 "Hg10 mi
2:53 AM50 °FClear.8 mph59%29.79 "Hg10 mi
1:53 AM51 °FClear.9 mph59%29.80 "Hg10 mi
12:53 AM51 °FClear.7 mph59%29.80 "Hg10 mi
11:53 PM
Sep 18
52 °FClear.8 mph59%29.81 "Hg10 mi
10:53 PM56 °FClear.7 mph51%29.81 "Hg10 mi
9:53 PM57 °FClear.10 mph51%29.82 "Hg10 mi
8:53 PM59 °FClear.8 mph48%29.81 "Hg10 mi
7:53 PM67 °FPartly sunny.6 mph37%29.80 "Hg10 mi
6:53 PM75 °FOvercast.No wind22%29.75 "Hg10 mi
5:53 PM74 °FScattered clouds.7 mph26%29.74 "Hg10 mi
4:53 PM77 °FSunny.8 mph21%29.73 "Hg10 mi
3:53 PM80 °FPassing clouds.9 mph18%29.72 "Hg10 mi
2:53 PM80 °FSunny.12 mph17%29.73 "Hg10 mi
2:02 PM79 °FSunny.12 mph17%30.14 "Hg10 mi
Weather by CustomWeather, © 2014

See weather overviewHow to use our weather pages